Change the Weather History Date:

Thursday, October 24, 2013

  Actual Average Record
Temperature  
Mean Temperature 34 °F 41 °F  
Max Temperature 43 °F 53 °F 80 °F (1927)
Min Temperature 25 °F 29 °F 7 °F (1887)
Degree Days  
Heating Degree Days 31 24  
Month to date heating degree days 498 445  
Since 1 July heating degree days 629 731  
Cooling Degree Days 0 0  
Month to date cooling degree days 0 0  
Year to date cooling degree days 555 519  
Moisture  
Dew Point 26 °F    
Average Humidity 73    
Maximum Humidity 92    
Minimum Humidity 53    
Precipitation  
Precipitation 0.00 in 0.04 in 0.78 in (1875)
Month to date precipitation 4.73 1.00  
Year to date precipitation 25.40 16.40  
Snow  
Snow 0.00 in 0.10 in 1.50 in (1919)
Month to date snowfall 1.0 1.2  
Since 1 July snowfall 1.0 1.4  
Since 1 September snowfall 1.0 1.4  
Snow Depth 0.00 in    
Sea Level Pressure  
Sea Level Pressure 30.36 in    
Wind  
Wind Speed 5 mph (WNW)    
Max Wind Speed 13 mph    
Max Gust Speed 17 mph    
Visibility 10 miles    
Events      
T = Trace of Precipitation, MM = Missing Value Source: NWS Daily Summary

Daily Weather History Graph

Daily Weather History Graph

Search for Another Location

Airport or City:

Trip Planner

Search our weather history database for the weather conditions in past years. The results will help you decide how hot, cold, wet, or windy it might be!

Date:

Astronomy

Oct. 24, 2013 Rise Set
Actual Time 8:14 AM CDT 6:39 PM CDT
Civil Twilight 7:42 AM CDT 7:10 PM CDT
Nautical Twilight 7:07 AM CDT 7:46 PM CDT
Astronomical Twilight 6:32 AM CDT 8:21 PM CDT
Moon 10:58 PM CDT (10/24) 1:24 PM CDT (10/24)
Length of Visible Light 11h 27m
Length of Day
10h 25m
Waning Gibbous, 71% of the Moon is Illuminated
Oct 24
Waning Gibbous
Oct 26
Last Quarter
Nov 3
New
Nov 9
First Quarter
Nov 17
Full

Hourly Weather History & Observations

Time (CDT) Temp. Windchill Dew Point Humidity Pressure Visibility Wind Dir Wind Speed Gust Speed Precip Events Conditions
12:52 AM 28.0 °F 20.8 °F 24.1 °F 85% 30.34 in 10.0 mi WNW 6.9 mph - N/A   Clear
1:52 AM 27.0 °F 20.5 °F 23.0 °F 85% 30.35 in 10.0 mi WNW 5.8 mph - N/A   Clear
2:52 AM 28.0 °F 21.7 °F 24.1 °F 85% 30.35 in 10.0 mi WNW 5.8 mph - N/A   Clear
3:52 AM 26.1 °F 18.4 °F 23.0 °F 88% 30.36 in 10.0 mi West 6.9 mph - N/A   Clear
4:52 AM 26.1 °F 19.4 °F 23.0 °F 88% 30.36 in 10.0 mi West 5.8 mph - N/A   Clear
5:52 AM 26.1 °F 17.6 °F 23.0 °F 88% 30.37 in 10.0 mi WNW 8.1 mph - N/A   Clear
6:52 AM 27.0 °F 17.3 °F 23.0 °F 85% 30.38 in 10.0 mi WNW 10.4 mph - N/A   Clear
7:52 AM 26.1 °F 17.6 °F 23.0 °F 88% 30.39 in 10.0 mi WNW 8.1 mph - N/A   Clear
8:52 AM 26.1 °F 19.4 °F 23.0 °F 88% 30.39 in 10.0 mi West 5.8 mph - N/A   Clear
9:52 AM 30.9 °F 26.2 °F 25.0 °F 79% 30.41 in 10.0 mi West 4.6 mph - N/A   Clear
10:52 AM 34.0 °F - 28.0 °F 79% 30.41 in 10.0 mi Calm Calm - N/A   Mostly Cloudy
11:52 AM 37.9 °F 32.1 °F 30.0 °F 73% 30.41 in 10.0 mi NNW 8.1 mph - N/A   Mostly Cloudy
12:52 PM 39.9 °F 35.1 °F 30.0 °F 68% 30.40 in 10.0 mi NNW 6.9 mph - N/A   Clear
1:01 PM 42.1 °F 38.4 °F 30.0 °F 62% 30.34 in 10.0 mi NW 5.8 mph - N/A   Mostly Cloudy
1:17 PM 39.9 °F 33.4 °F 28.9 °F 65% 30.34 in 10.0 mi WNW 10.4 mph - N/A   Mostly Cloudy
1:52 PM 39.9 °F 33.9 °F 30.0 °F 68% 30.39 in 10.0 mi NNW 9.2 mph - N/A   Overcast
2:50 PM 42.8 °F 38.0 °F 26.6 °F 53% 30.32 in 10.0 mi WNW 8.1 mph - N/A   Overcast
2:52 PM 43.0 °F 37.2 °F 27.0 °F 53% 30.37 in 10.0 mi NW 10.4 mph - N/A   Overcast
3:52 PM 41.0 °F 37.1 °F 28.0 °F 60% 30.37 in 10.0 mi NW 5.8 mph - N/A   Overcast
4:52 PM 41.0 °F 37.1 °F 27.0 °F 57% 30.36 in 10.0 mi WNW 5.8 mph - N/A   Mostly Cloudy
5:52 PM 39.9 °F 37.8 °F 27.0 °F 60% 30.36 in 10.0 mi NNW 3.5 mph - N/A   Mostly Cloudy
6:52 PM 37.9 °F - 26.1 °F 62% 30.35 in 10.0 mi Calm Calm - N/A   Clear
7:52 PM 30.0 °F - 25.0 °F 82% 30.36 in 10.0 mi Calm Calm - N/A   Clear
8:52 PM 26.1 °F 21.9 °F 23.0 °F 88% 30.35 in 10.0 mi SSE 3.5 mph - N/A   Clear
9:52 PM 26.1 °F 20.5 °F 23.0 °F 88% 30.33 in 10.0 mi ESE 4.6 mph - N/A   Clear
10:52 PM 25.0 °F 20.7 °F 23.0 °F 92% 30.33 in 10.0 mi SE 3.5 mph - N/A   Clear
11:52 PM 27.0 °F - 25.0 °F 92% 30.31 in 10.0 mi Calm Calm - N/A   Clear